Regional Weather Roundup
Issued by NWS

Home | Current Version | Previous Version | Graphics & Text | Print | Product List | Glossary On
Versions: 1 2 3 4 5 6 7 8 9 10 11 12 13 14 15 16 17 18 19 20 21 22 23 24 25 26 27 28 29 30 31 32 33 34 35 36 37 38 39 40 41 42 43 44 45 46 47 48 49 50
000
ASUS43 KMKX 182200
RWRWI

WISCONSIN REGIONAL WEATHER ROUNDUP
NATIONAL WEATHER SERVICE MILWAUKEE/SULLIVAN WI
400 PM CST WED JAN 18 2017

NOTE: "FAIR" INDICATES FEW OR NO CLOUDS BELOW 12,000 FEET WITH NO
SIGNIFICANT WEATHER AND/OR OBSTRUCTIONS TO VISIBILITY.

WIZ001-002-006>008-014>016-023>028-182300-
NORTHWEST WISCONSIN

CITY           SKY/WX    TMP DP  RH WIND       PRES   REMARKS
SUPERIOR ARPT  CLOUDY    42  28  56 SW8       29.80S
ASHLAND        CLEAR     42  28  57 SW9       29.81S
HAYWARD        CLEAR     39  28  64 S9        29.84R WCI  33
SIREN          CLEAR     40  28  62 SW9       29.85R WCI  34
CUMBERLAND     CLEAR     36  30  80 SW12      29.85R WCI  27
RICE LAKE      CLEAR     39  30  70 S7        29.87S WCI  34
CHETEK         CLEAR     38  31  74 SE7       29.86F WCI  33
LADYSMITH      CLEAR     39  30  69 S8        29.87S WCI  34
EAU CLAIRE     CLEAR     38  31  76 S9        29.88F WCI  31
MENOMONIE      CLEAR     37  31  78 MISG      29.88F
NEW RICHMOND   CLEAR     38  31  76 S10       29.86S WCI  31
OSCEOLA        CLEAR     39  32  76 S8        29.88S WCI  33
$$

WIZ003>005-009-010-017-018-182300-
NORTH CENTRAL WISCONSIN

CITY           SKY/WX    TMP DP  RH WIND       PRES   REMARKS
MANITOWISH WTR CLEAR     41  26  56 W7        29.81R
ARBOR VITAE    CLEAR     43  28  55 W5        29.82R
WOODRUFF       CLEAR     43  28  55 W5        29.82R
RHINELANDER    CLEAR     39  30  70 SW13G18   29.84R WCI  31
EAGLE RIVER    CLEAR     42  27  55 SW12G17   29.81R
LAND O LAKES   CLEAR     46  24  42 W6        29.81R
PHILLIPS       CLEAR     37  29  72 SW8       29.84R WCI  31
TOMAHAWK       CLEAR     38  29  70 S3        29.85R
MEDFORD        CLEAR     36  30  77 S9        29.86S WCI  29
MERRILL        CLEAR     38  32  76 SW8         N/A  WCI  33
$$

WIZ029-030-035-036-043>047-182300-
CENTRAL WISCONSIN

CITY           SKY/WX    TMP DP  RH WIND       PRES   REMARKS
WAUSAU         CLEAR     39  31  72 SW8       29.86F WCI  33
MOSINEE        NOT AVBL
MARSHFIELD     CLEAR     39  29  67 W12       29.88S WCI  32
STEVENS POINT  CLEAR     39  31  73 SW9       29.90S WCI  33
WAUPACA        CLEAR     43  32  64 CALM      29.91F
WAUTOMA        CLEAR     39  31  72 SW9       29.95  WCI  33
WISC RAPIDS    CLEAR     40  30  67 SW13      29.92R WCI  32
CAMP DOUGLAS   NOT AVBL
$$

WIZ011>013-019>022-031-037>040-048>050-182300-
NORTHEAST WISCONSIN

CITY           SKY/WX    TMP DP  RH WIND       PRES   REMARKS
ANTIGO         CLEAR     36  31  82 SW10      29.86S WCI  28
SHAWANO        CLEAR     42  33  70 SW7       29.89F
OCONTO         NOT AVBL
STURGEON BAY   CLEAR     36  31  82 SW14G24   29.89S WCI  27
GREEN BAY      CLEAR     37  33  85 S12       29.91S WCI  29
MANITOWOC      NOT AVBL
APPLETON       CLEAR     36  32  87 S16       29.90F WCI  26
CLINTONVILLE   CLEAR     41  32  70 SW9       29.89F
OSHKOSH        CLEAR     34  30  85 SW9       29.95R WCI  27
$$

WIZ032>034-041-042-053>061-182300-
SOUTHWEST WISCONSIN

CITY           SKY/WX    TMP DP  RH WIND       PRES   REMARKS
LA CROSSE      CLEAR     37  31  78 S10       29.95S WCI  30
SPARTA         CLEAR     38  31  77 S7        29.95S WCI  33
VIROQUA        CLEAR     34  32  93 SW9       29.95R WCI  26
BOSCOBEL       PTCLDY    36  31  82 SW9       30.00F WCI  29
PRAIRIE DU CHI CLOUDY    35  30  82 S7        30.00F HAZE    WCI  29
PLATTEVILLE    CLOUDY    35  34  96 SW12      30.01S WCI  27
$$

WIZ056-057-062-063-064-067-068-182300-
SOUTH CENTRAL WISCONSIN

CITY           SKY/WX    TMP DP  RH WIND       PRES   REMARKS
REEDSBURG      NOT AVBL
BARABOO/DELLS  CLEAR     37  31  78 SW7       29.96R WCI  31
LONE ROCK      PTCLDY    35  30  82 S8        30.00S HAZE    WCI  29
MINERAL POINT  CLOUDY    34  34 100 S10       30.00S FOG     WCI  26
MADISON        PTCLDY    34  30  85 S12       30.00S WCI  25
MIDDLETON      CLEAR     37  32  85 S12       29.99F WCI  29
WATERTOWN      MOCLDY    33  32  98 SW13      29.99R WCI  23
MONROE         CLOUDY    34  32  93 SW12      30.02R FOG     WCI  25
JANESVILLE     CLOUDY    36  34  93 SW10      30.04R WCI  28
$$

WIZ051-052-058>065-066-070>072-182300-
SOUTHEAST WISCONSIN

CITY           SKY/WX    TMP DP  RH WIND       PRES   REMARKS
MILWAUKEE      CLOUDY    36  31  82 SW13      30.01F WCI  27
WAUKESHA       CLOUDY    32  30  93 SW9       30.01F WCI  24
MILWAUKEE/TIMM PTCLDY    34  28  80 SW10      30.01F WCI  26
RACINE         CLOUDY    35  30  82 SW16      30.03F WCI  25
KENOSHA        CLOUDY    34  31  88 W13       30.04S FOG     WCI  25
FOND DU LAC    CLEAR     35  29  78 S12       29.95S WCI  27
SHEBOYGAN      CLEAR     36  31  82 SW12      29.96S WCI  28
WEST BEND      CLEAR     34  32  93 SW10      29.97F WCI  26
JUNEAU         PTCLDY    33  31  92 S13       29.98F WCI  24
$$

LSZ147-162-182300-
LAKE SUPERIOR

STATION/POSITION TIME  TEMP    WIND        PRES    WAVE
                       AIR SEA DIR/SP/G            HT/PER
                 (UTC) (F)     (DEG/KT/KT) (MB)    (FT/S)
DEVILS ISLAND    2100   35     220/ 12/ 14 1009.2R
PORT WING        2130   41     230/  5/  6 1009.5S
SAXON HARBOR     2140   46     210/  6/  8 1009.1S
$$

LMZ867-665-643>646-182300-
LAKE MICHIGAN

STATION/POSITION TIME  TEMP    WIND        PRES    WAVE
                       AIR SEA DIR/SP/G            HT/PER
                 (UTC) (F)     (DEG/KT/KT) (MB)    (FT/S)
NORTHPORT PIER   2140   39     200/  7/ 13 1011.5R
SISTER BAY       1935   43     220/ 11/ 13   N/A
KEWAUNEE LAKESHO 2130   38     220/  8/ 11 1012.8R
SHEBOYGAN LAKESH 2100   39     220/ 16/ 18 1014.8F
PORT WASHINGTON  2140   37     230/  4/ 11 1016.3F
MILWAUKEE LAKESH 2130   36     240/ 12/ 14   N/A
KENOSHA   LAKESH 2100   36     260/ 12/ 14 1017.6
$$

TC  - TEMPERATURE IN CELSIUS
VSB - VISIBILITY IN STATUTE MILES
WCI - WIND CHILL INDEX
HX  - HEAT INDEX




USA.gov is the U.S. government's official web portal to all federal, state and local government web resources and services.